EW6167 Weather Reports


Display with metric or nautical units.
time (UTC)temp
F
wind
direction
speed
MPH
gust
MPH
rain 1hr
in
rain 24hr
in
rain mn
in
humidity
%
barometer
mb
20260903195038 68 119 17.0 0.0 0.00 0.00 0.00 32 1003.7
20260903194547 68 167 17.0 0.0 0.00 0.00 0.00 34 1003.6
20260903194043 67 150 19.0 0.0 0.00 0.00 0.00 34 1003.9
20260903193541 67 166 19.0 0.0 0.00 0.00 0.00 34 1004.0
20260903193103 66 171 19.0 0.0 0.00 0.00 0.00 34 1003.8
20260903192558 67 148 19.0 0.0 0.00 0.00 0.00 35 1003.8
20260903192004 67 202 20.0 0.0 0.00 0.00 0.00 34 1003.7
20260903191508 67 146 20.0 0.0 0.00 0.00 0.00 34 1003.6
20260903191022 67 186 20.0 0.0 0.00 0.00 0.00 34 1003.4
20260903190530 67 178 19.0 0.0 0.00 0.00 0.00 34 1003.5
20260903190031 66 150 19.0 0.0 0.00 0.00 0.00 35 1003.4
20260903185542 66 154 19.0 0.0 0.00 0.00 0.00 35 1003.5
20260903185041 66 186 20.0 0.0 0.00 0.00 0.00 35 1003.3
20260903184549 66 132 19.0 0.0 0.00 0.00 0.00 35 1003.3
20260903184041 66 175 17.0 0.0 0.00 0.00 0.00 35 1003.4
20260903183543 66 161 17.0 0.0 0.00 0.00 0.00 36 1003.6
20260903183039 65 129 19.0 0.0 0.00 0.00 0.00 37 1003.7
20260903182544 65 146 19.0 0.0 0.00 0.00 0.00 36 1003.9
20260903182048 65 177 20.0 0.0 0.00 0.00 0.00 36 1003.8
20260903181544 65 159 21.0 0.0 0.00 0.00 0.00 38 1003.8
20260903181045 65 149 21.0 0.0 0.00 0.00 0.00 38 1003.8
20260903180551 64 165 21.0 0.0 0.00 0.00 0.00 38 1004.0
20260903180051 64 130 20.0 0.0 0.00 0.00 0.00 38 1003.8
20260903175558 64 190 21.0 0.0 0.00 0.00 0.00 38 1004.0
20260903175056 64 144 20.0 0.0 0.00 0.00 0.00 38 1004.0
20260903174548 64 125 21.0 0.0 0.00 0.00 0.00 39 1004.1
20260903174053 62 179 21.0 0.0 0.00 0.00 0.00 41 1004.0
20260903173558 62 178 19.0 0.0 0.00 0.00 0.00 41 1004.1
20260903173107 61 161 19.0 0.0 0.00 0.00 0.00 41 1004.2
20260903172520 61 173 18.0 0.0 0.00 0.00 0.00 42 1004.0
20260903172030 60 150 19.0 0.0 0.00 0.00 0.00 42 1004.0
20260903171538 60 166 20.0 0.0 0.00 0.00 0.00 42 1003.9
20260903171039 60 185 20.0 0.0 0.00 0.00 0.00 42 1003.9
20260903170539 60 200 19.0 0.0 0.00 0.00 0.00 42 1003.9
20260903170049 62 157 18.0 0.0 0.00 0.00 0.00 40 1003.9
20260903165551 62 207 18.0 0.0 0.00 0.00 0.00 41 1003.9
20260903165102 61 192 18.0 0.0 0.00 0.00 0.00 41 1003.9
20260903164540 60 178 18.0 0.0 0.00 0.00 0.00 43 1003.8
20260903164040 59 163 17.0 0.0 0.00 0.00 0.00 43 1003.9
20260903163550 59 190 17.0 0.0 0.00 0.00 0.00 41 1004.0
20260903163102 60 205 16.0 0.0 0.00 0.00 0.00 41 1004.2
20260903162500 60 188 16.0 0.0 0.00 0.00 0.00 42 1004.2
20260903162100 59 171 17.0 0.0 0.00 0.00 0.00 43 1004.1
20260903161606 58 156 17.0 0.0 0.00 0.00 0.00 43 1004.1
20260903161003 58 184 17.0 0.0 0.00 0.00 0.00 43 1004.1
20260903160502 58 140 17.0 0.0 0.00 0.00 0.00 43 1004.1
20260903160015 58 127 17.0 0.0 0.00 0.00 0.00 43 1004.2
20260903155606 57 175 18.0 0.0 0.00 0.00 0.00 43 1004.2
20260903155015 57 192 16.0 0.0 0.00 0.00 0.00 42 1004.3
20260903154046 57 165 16.0 0.0 0.00 0.00 0.00 42 1004.1
20260903153536 57 172 17.0 0.0 0.00 0.00 0.00 42 1004.1
20260903153045 57 183 18.0 0.0 0.00 0.00 0.00 43 1004.1
20260903152553 57 184 17.0 0.0 0.00 0.00 0.00 42 1004.2
20260903152003 57 180 18.0 0.0 0.00 0.00 0.00 42 1004.2
20260903151613 57 165 18.0 0.0 0.00 0.00 0.00 42 1004.2
20260903151004 57 175 17.0 0.0 0.00 0.00 0.00 42 1004.2
20260903150601 56 182 17.0 0.0 0.00 0.00 0.00 42 1004.1
20260903150108 56 177 16.0 0.0 0.00 0.00 0.00 41 1004.2
20260903145607 56 191 15.0 0.0 0.00 0.00 0.00 42 1004.1
20260903145104 56 169 15.0 0.0 0.00 0.00 0.00 42 1004.1
20260903144502 56 131 15.0 0.0 0.00 0.00 0.00 42 1004.1
20260903144010 56 163 16.0 0.0 0.00 0.00 0.00 41 1004.0
20260903143528 56 177 17.0 0.0 0.00 0.00 0.00 41 1004.1
20260903143042 56 172 18.0 0.0 0.00 0.00 0.00 41 1004.1
20260903142545 56 164 19.0 0.0 0.00 0.00 0.00 40 1004.1
20260903142012 56 130 17.0 0.0 0.00 0.00 0.00 40 1004.0
20260903141526 56 126 17.0 0.0 0.00 0.00 0.00 40 1004.0
20260903141036 56 180 17.0 0.0 0.00 0.00 0.00 40 1003.8
20260903140550 56 171 17.0 0.0 0.00 0.00 0.00 40 1003.8
20260903140057 56 182 15.0 0.0 0.00 0.00 0.00 40 1003.9
20260903135513 55 155 15.0 0.0 0.00 0.00 0.00 40 1003.9
20260903135026 55 171 14.0 0.0 0.00 0.00 0.00 40 1003.8
20260903134548 55 171 14.0 0.0 0.00 0.00 0.00 40 1003.8
20260903134055 55 171 15.0 0.0 0.00 0.00 0.00 40 1003.8
20260903133502 55 196 14.0 0.0 0.00 0.00 0.00 40 1003.8
20260903133020 54 170 12.0 0.0 0.00 0.00 0.00 40 1003.8
20260903132526 55 182 13.0 0.0 0.00 0.00 0.00 40 1003.7
20260903132043 55 154 15.0 0.0 0.00 0.00 0.00 40 1003.8
20260903131503 54 174 13.0 0.0 0.00 0.00 0.00 40 1003.8
20260903131024 54 209 12.0 0.0 0.00 0.00 0.00 41 1003.7
20260903130537 53 146 11.0 0.0 0.00 0.00 0.00 42 1003.6
20260903130051 52 178 9.0 0.0 0.00 0.00 0.00 43 1003.7
20260903125556 51 166 8.0 0.0 0.00 0.00 0.00 44 1003.8
20260903125014 51 178 7.0 0.0 0.00 0.00 0.00 45 1003.7
20260903124533 51 176 6.0 0.0 0.00 0.00 0.00 45 1003.7
20260903124051 52 166 7.0 0.0 0.00 0.00 0.00 44 1003.6
20260903123501 52 158 7.0 0.0 0.00 0.00 0.00 43 1003.6
20260903123022 52 159 8.0 0.0 0.00 0.00 0.00 43 1003.7
20260903122537 53 162 8.0 0.0 0.00 0.00 0.00 42 1003.8
20260903122046 54 152 8.0 0.0 0.00 0.00 0.00 42 1003.8
20260903121604 54 129 8.0 0.0 0.00 0.00 0.00 40 1003.8
20260903121025 55 173 9.0 0.0 0.00 0.00 0.00 40 1003.8
20260903120549 55 204 11.0 0.0 0.00 0.00 0.00 39 1003.8
20260903120055 55 192 13.0 0.0 0.00 0.00 0.00 39 1003.9
20260903115511 55 217 11.0 0.0 0.00 0.00 0.00 40 1003.9
20260903115020 54 182 8.0 0.0 0.00 0.00 0.00 41 1003.8
20260903114531 54 180 8.0 0.0 0.00 0.00 0.00 43 1003.9
20260903114040 54 183 8.0 0.0 0.00 0.00 0.00 43 1003.9
20260903113551 54 215 9.0 0.0 0.00 0.00 0.00 43 1003.9
20260903113051 54 194 11.0 0.0 0.00 0.00 0.00 44 1003.9
20260903112514 54 200 14.0 0.0 0.00 0.00 0.00 44 1003.8
20260903112025 54 211 18.0 0.0 0.00 0.00 0.00 43 1004.1
20260903111534 54 157 20.0 0.0 0.00 0.00 0.00 43 1003.8
20260903111049 55 180 22.0 0.0 0.00 0.00 0.00 41 1003.5
20260903110553 55 173 21.0 0.0 0.00 0.00 0.00 40 1003.6
20260903110049 56 167 19.0 0.0 0.00 0.00 0.00 39 1003.4
20260903105507 56 128 16.0 0.0 0.00 0.00 0.00 36 1003.3
20260903105024 57 176 17.0 0.0 0.00 0.00 0.00 36 1003.3
20260903104533 57 134 18.0 0.0 0.00 0.00 0.00 36 1003.1
20260903104040 57 140 18.0 0.0 0.00 0.00 0.00 36 1002.9
20260903103552 57 181 17.0 0.0 0.00 0.00 0.00 35 1002.8
20260903103101 57 173 16.0 0.0 0.00 0.00 0.00 34 1002.7
20260903102509 58 150 16.0 0.0 0.00 0.00 0.00 33 1002.6
20260903102031 58 178 16.0 0.0 0.00 0.00 0.00 32 1002.6
20260903101551 58 161 16.0 0.0 0.00 0.00 0.00 32 1002.5
20260903101102 58 145 17.0 0.0 0.00 0.00 0.00 32 1002.5
20260903100511 58 177 17.0 0.0 0.00 0.00 0.00 32 1002.3
20260903100028 58 171 17.0 0.0 0.00 0.00 0.00 32 1002.1
20260903095539 58 178 17.0 0.0 0.00 0.00 0.00 32 1002.1
20260903095048 58 150 17.0 0.0 0.00 0.00 0.00 31 1002.1
20260903094505 58 135 19.0 0.0 0.00 0.00 0.00 31 1002.1
20260903094027 59 168 18.0 0.0 0.00 0.00 0.00 31 1002.1
20260903093542 58 171 16.0 0.0 0.00 0.00 0.00 31 1002.2
20260903093102 58 173 16.0 0.0 0.00 0.00 0.00 31 1002.2
20260903092517 58 126 17.0 0.0 0.00 0.00 0.00 31 1002.2
20260903092028 58 126 16.0 0.0 0.00 0.00 0.00 30 1002.2
20260903091541 58 149 16.0 0.0 0.00 0.00 0.00 30 1002.0
20260903091054 58 173 17.0 0.0 0.00 0.00 0.00 29 1002.1
20260903090508 58 175 14.0 0.0 0.00 0.00 0.00 30 1002.3
20260903090015 58 146 14.0 0.0 0.00 0.00 0.00 29 1002.5
20260903085528 58 169 15.0 0.0 0.00 0.00 0.00 29 1002.6
20260903085047 58 179 14.0 0.0 0.00 0.00 0.00 29 1002.7
20260903084557 58 148 13.0 0.0 0.00 0.00 0.00 29 1002.7
20260903084006 58 165 14.0 0.0 0.00 0.00 0.00 28 1002.7
20260903083528 58 130 15.0 0.0 0.00 0.00 0.00 28 1002.7
20260903083047 58 167 15.0 0.0 0.00 0.00 0.00 28 1002.7
20260903082558 58 169 15.0 0.0 0.00 0.00 0.00 28 1002.8
20260903082002 58 176 15.0 0.0 0.00 0.00 0.00 28 1002.9
20260903081534 58 163 15.0 0.0 0.00 0.00 0.00 28 1002.8
20260903081040 58 133 15.0 0.0 0.00 0.00 0.00 28 1002.9
20260903080556 58 161 16.0 0.0 0.00 0.00 0.00 27 1002.7
20260903080009 58 152 17.0 0.0 0.00 0.00 0.00 27 1002.9
20260903075535 58 169 17.0 0.0 0.00 0.00 0.00 27 1002.7
20260903075040 58 172 16.0 0.0 0.00 0.00 0.00 28 1002.7
20260903074552 58 148 14.0 0.0 0.00 0.00 0.00 28 1002.7
20260903074008 57 170 14.0 0.0 0.00 0.00 0.00 28 1002.7
20260903073533 57 163 14.0 0.0 0.00 0.00 0.00 28 1002.7
20260903073058 57 188 14.0 0.0 0.00 0.00 0.00 28 1002.7
20260903072557 57 161 13.0 0.0 0.00 0.00 0.00 29 1002.7
20260903072009 56 194 13.0 0.0 0.00 0.00 0.00 29 1002.8
20260903071532 57 190 16.0 0.0 0.00 0.00 0.00 29 1002.8
20260903071052 58 167 17.0 0.0 0.00 0.00 0.00 27 1002.8
20260903070557 58 170 16.0 0.0 0.00 0.00 0.00 27 1002.9
20260903070003 57 166 13.0 0.0 0.00 0.00 0.00 28 1002.7
20260903065517 57 165 12.0 0.0 0.00 0.00 0.00 29 1002.7
20260903065028 57 192 13.0 0.0 0.00 0.00 0.00 28 1002.7
20260903064537 57 165 14.0 0.0 0.00 0.00 0.00 28 1002.7
20260903064046 57 180 14.0 0.0 0.00 0.00 0.00 28 1002.7
20260903063553 57 198 14.0 0.0 0.00 0.00 0.00 29 1002.8
20260903063008 56 165 13.0 0.0 0.00 0.00 0.00 29 1002.8
20260903062516 56 182 14.0 0.0 0.00 0.00 0.00 29 1002.8
20260903062025 56 174 14.0 0.0 0.00 0.00 0.00 30 1002.8
20260903061546 56 169 15.0 0.0 0.00 0.00 0.00 30 1002.8
20260903061057 56 152 15.0 0.0 0.00 0.00 0.00 30 1002.8
20260903060517 57 165 14.0 0.0 0.00 0.00 0.00 29 1002.8
20260903060033 57 175 14.0 0.0 0.00 0.00 0.02 29 1002.6
20260903055548 57 119 15.0 0.0 0.00 0.00 0.02 29 1002.6
20260903055055 58 154 16.0 0.0 0.00 0.00 0.02 28 1002.4
20260903054503 58 148 14.0 0.0 0.00 0.00 0.02 28 1002.4
20260903054031 57 148 12.0 0.0 0.00 0.00 0.02 28 1002.5
20260903053553 58 153 11.0 0.0 0.00 0.00 0.02 28 1002.6
20260903053102 58 167 13.0 0.0 0.00 0.00 0.02 27 1002.6
20260903052521 58 152 12.0 0.0 0.00 0.00 0.02 27 1002.6
20260903052040 58 140 11.0 0.0 0.00 0.00 0.02 27 1002.6
20260903051551 58 169 11.0 0.0 0.00 0.00 0.02 27 1002.8
20260903051007 58 176 11.0 0.0 0.00 0.00 0.02 26 1002.8
20260903050529 58 119 10.0 0.0 0.00 0.00 0.02 26 1002.7
20260903050036 58 184 10.0 0.0 0.00 0.00 0.02 26 1002.8
20260903045556 59 180 10.0 0.0 0.00 0.00 0.02 26 1002.8
20260903045014 58 159 9.0 0.0 0.00 0.00 0.02 26 1003.0
20260903044530 58 180 9.0 0.0 0.00 0.00 0.02 26 1003.2
20260903044043 59 145 9.0 0.0 0.00 0.00 0.02 26 1003.2
20260903043558 59 138 10.0 0.0 0.00 0.00 0.02 25 1003.3
20260903043020 59 170 11.0 0.0 0.00 0.00 0.02 25 1003.3
20260903042531 60 149 12.0 0.0 0.00 0.00 0.02 25 1003.4
20260903042054 60 157 13.0 0.0 0.00 0.00 0.02 25 1003.5
20260903041509 59 168 11.0 0.0 0.00 0.00 0.02 25 1003.4
20260903041031 59 172 10.0 0.0 0.00 0.00 0.02 25 1003.4
20260903040548 59 132 11.0 0.0 0.00 0.00 0.02 25 1003.5
20260903040104 60 167 12.0 0.0 0.00 0.00 0.02 25 1003.4
20260903035505 59 141 12.0 0.0 0.00 0.00 0.02 25 1003.2
20260903035024 59 192 12.0 0.0 0.00 0.00 0.02 26 1003.2
20260903034543 60 140 12.0 0.0 0.00 0.00 0.02 25 1003.2
20260903034103 60 178 12.0 0.0 0.00 0.00 0.02 25 1003.0
20260903033506 60 156 12.0 0.0 0.00 0.00 0.02 25 1003.0
20260903033025 60 167 14.0 0.0 0.00 0.00 0.02 24 1003.0
20260903032539 60 162 13.0 0.0 0.00 0.00 0.02 24 1003.1
20260903032057 60 144 12.0 0.0 0.00 0.00 0.02 24 1003.1
20260903031521 61 168 11.0 0.0 0.00 0.00 0.02 24 1003.1
20260903031023 61 175 11.0 0.0 0.00 0.00 0.02 24 1003.2
20260903030535 61 138 12.0 0.0 0.00 0.00 0.02 24 1003.2
20260903030045 61 146 13.0 0.0 0.00 0.00 0.02 23 1003.2
20260903025547 61 164 14.0 0.0 0.00 0.00 0.02 23 1003.2
20260903025053 62 136 15.0 0.0 0.00 0.00 0.02 23 1002.9
20260903024504 62 131 16.0 0.0 0.00 0.00 0.02 23 1002.9
20260903024012 62 160 16.0 0.0 0.00 0.00 0.02 23 1002.8
20260903023537 62 153 16.0 0.0 0.00 0.00 0.02 23 1002.5
20260903023058 62 139 16.0 0.0 0.00 0.00 0.02 23 1002.5
20260903022554 62 178 16.0 0.0 0.00 0.00 0.02 23 1002.6
20260903022005 62 197 17.0 0.0 0.00 0.00 0.02 23 1002.7
20260903021543 63 198 18.0 0.0 0.00 0.00 0.02 23 1002.7
20260903021044 63 178 19.0 0.0 0.00 0.00 0.02 22 1002.5
20260903020556 63 132 18.0 0.0 0.00 0.00 0.02 22 1002.4
20260903020007 63 146 19.0 0.0 0.00 0.00 0.02 22 1002.3
20260903015528 64 180 20.0 0.0 0.00 0.00 0.02 22 1002.5
20260903015046 64 168 20.0 0.0 0.00 0.00 0.02 21 1002.6
20260903014555 64 152 20.0 0.0 0.00 0.00 0.02 21 1002.6
20260903014004 64 186 20.0 0.0 0.00 0.00 0.02 21 1002.6
20260903013515 65 171 20.0 0.0 0.00 0.00 0.02 20 1002.6
20260903013034 65 188 21.0 0.0 0.00 0.00 0.02 20 1002.6
20260903012546 65 170 21.0 0.0 0.00 0.00 0.02 19 1002.3
20260903012055 65 159 20.0 0.0 0.00 0.00 0.02 19 1002.4
20260903011605 66 137 20.0 0.0 0.00 0.00 0.02 20 1002.4
20260903011009 66 190 19.0 0.0 0.00 0.00 0.02 19 1002.4
20260903010536 66 132 18.0 0.0 0.00 0.00 0.02 19 1002.2
20260903010052 67 168 17.0 0.0 0.00 0.00 0.02 19 1002.1
20260903005503 67 166 17.0 0.0 0.00 0.00 0.02 18 1002.1
20260903005021 67 133 18.0 0.0 0.00 0.00 0.02 18 1002.0
20260903004541 67 172 19.0 0.0 0.00 0.00 0.02 18 1002.0
20260903004048 67 178 20.0 0.0 0.00 0.00 0.02 18 1002.1
20260903003557 67 171 19.0 0.0 0.00 0.00 0.02 18 1001.9
20260903003014 67 130 20.0 0.0 0.00 0.00 0.02 18 1002.0
20260903002525 68 196 21.0 0.0 0.00 0.00 0.02 18 1002.1
20260903002029 68 162 20.0 0.0 0.00 0.00 0.02 18 1002.1
20260903001547 69 182 19.0 0.0 0.00 0.00 0.02 18 1001.9
20260903001008 69 167 18.0 0.0 0.00 0.00 0.02 18 1001.7
20260903000531 70 184 18.0 0.0 0.00 0.00 0.02 17 1001.8
20260903000036 69 171 19.0 0.0 0.00 0.00 0.02 18 1001.8
20260902235542 69 163 19.0 0.0 0.00 0.00 0.02 17 1001.8
20260902235056 70 182 20.0 0.0 0.00 0.00 0.02 17 1001.9
20260902234504 70 178 21.0 0.0 0.00 0.00 0.02 16 1001.8
20260902234023 69 201 21.0 0.0 0.00 0.00 0.02 17 1001.8
20260902233543 69 159 21.0 0.0 0.00 0.00 0.02 16 1001.8
20260902233052 70 174 19.0 0.0 0.00 0.00 0.02 16 1001.9
20260902232512 69 182 18.0 0.0 0.00 0.00 0.02 16 1001.8
20260902232038 69 204 19.0 0.0 0.00 0.00 0.02 16 1001.9
20260902231558 69 144 20.0 0.0 0.00 0.00 0.02 16 1001.9
20260902231105 69 188 22.0 0.0 0.00 0.00 0.02 16 1001.8
20260902230504 69 206 23.0 0.0 0.00 0.00 0.02 16 1002.0
20260902230027 69 185 22.0 0.0 0.00 0.00 0.02 15 1001.9
20260902225542 70 186 22.0 0.0 0.00 0.00 0.02 16 1002.1
20260902225053 70 180 22.0 0.0 0.00 0.00 0.02 16 1002.1
20260902224509 72 198 21.0 0.0 0.00 0.00 0.02 15 1002.0
20260902224031 72 193 20.0 0.0 0.00 0.00 0.02 16 1001.9
20260902223553 72 182 18.0 0.0 0.00 0.00 0.02 17 1002.0
20260902223004 72 219 19.0 0.0 0.00 0.00 0.02 18 1001.6
20260902222515 71 202 21.0 0.0 0.00 0.00 0.02 19 1001.7
20260902222033 71 196 21.0 0.0 0.00 0.00 0.02 19 1001.9
20260902221552 71 148 21.0 0.0 0.00 0.00 0.02 19 1001.6
20260902221100 71 116 20.0 0.0 0.00 0.00 0.02 19 1001.8
20260902220515 72 181 21.0 0.0 0.00 0.00 0.02 21 1001.9
20260902220035 72 219 21.0 0.0 0.00 0.00 0.02 20 1001.6
20260902215546 72 203 22.0 0.0 0.00 0.00 0.02 20 1001.6
20260902215056 73 159 24.0 0.0 0.00 0.00 0.02 19 1001.6
20260902214501 73 177 23.0 0.0 0.00 0.00 0.02 20 1001.5
20260902214013 73 215 20.0 0.0 0.00 0.00 0.02 20 1001.4
20260902213530 73 203 21.0 0.0 0.00 0.00 0.02 22 1001.3
20260902213050 73 186 22.0 0.0 0.00 0.00 0.02 22 1001.2
20260902212552 72 135 22.0 0.0 0.00 0.00 0.02 23 1001.3
20260902212016 71 155 23.0 0.0 0.00 0.00 0.02 24 1001.3
20260902211535 72 168 23.0 0.0 0.00 0.00 0.02 23 1001.4
20260902211052 73 195 24.0 0.0 0.00 0.00 0.02 21 1001.3
20260902210511 73 186 24.0 0.0 0.00 0.00 0.02 21 1001.1
20260902210036 73 194 23.0 0.0 0.00 0.00 0.02 22 1001.2
20260902205543 73 175 21.0 0.0 0.00 0.00 0.02 21 1001.2
20260902205001 73 171 23.0 0.0 0.00 0.00 0.02 21 1001.2
20260902204517 73 222 22.0 0.0 0.00 0.00 0.02 21 1001.2
20260902204033 73 208 21.0 0.0 0.00 0.00 0.02 19 1001.2
20260902203559 72 179 22.0 0.0 0.00 0.00 0.02 20 1001.3
20260902203001 73 187 22.0 0.0 0.00 0.00 0.02 20 1000.9
20260902202522 72 198 24.0 0.0 0.00 0.00 0.02 20 1001.1
20260902202031 73 180 26.0 0.0 0.00 0.00 0.02 19 1000.9
20260902201546 73 205 27.0 0.0 0.00 0.00 0.02 19 1000.8
20260902201006 73 208 26.0 0.0 0.00 0.00 0.02 19 1000.6
20260902200527 73 176 25.0 0.0 0.00 0.00 0.02 19 1000.6
20260902200040 73 150 25.0 0.0 0.00 0.00 0.02 18 1000.8
20260902195555 73 167 25.0 0.0 0.00 0.00 0.02 19 1000.8